Location: Br�znic
(45.9167°N, 22.6500°E)
Time: 06:35:25
(UTC+00:00)

FALCON 9 DEB - Pass Details

Date: 03 March 2021
Orbit: 424 x 435 km, 53.0° (Epoch: 10 April)

Event Time Altitude Azimuth Distance (km) Brightness Sun altitude
Rises 16:46:12 0° 300° (WNW) 2,405 7.9 -5.6°
Reaches altitude 10° 16:48:26 10° 310° (NW) 1,534 6.7 -5.9°
Maximum altitude 16:51:38 35° 18° (NNE) 711 4.0 -6.5°
Drops below altitude 10° 16:54:49 10° 87° (E) 1,523 5.2 -7.1°
Enters shadow 16:54:58 - 88° (E) 1,575 5.2 -7.1°
